Date,TemperatureHighF,TemperatureAvgF,TemperatureLowF,DewpointHighF,DewpointAvgF,DewpointLowF,HumidityHigh,HumidityAvg,HumidityLow,PressureMaxIn,PressureMinIn,WindSpeedMaxMPH,WindSpeedAvgMPH,GustSpeedMaxMPH,PrecipitationSumIn
2014-1-1,62.7,59.0,56.1,61.0,57.0,52.0,97,93,82,30.29,30.09,11,4,15,0.04
2014-1-2,77.2,65.6,56.8,73.0,64.5,53.0,99,96,83,30.09,29.84,21,5,34,0.17
2014-1-3,56.5,44.7,39.2,53.0,33.1,26.0,88,65,44,30.32,29.99,20,10,27,0.00
2014-1-4,63.6,52.3,39.4,55.0,48.2,35.0,94,86,73,30.29,30.12,11,4,15,0.00
2014-1-5,79.8,65.7,54.7,67.0,60.7,54.0,98,85,62,30.14,29.98,8,1,12,0.00
2014-1-6,72.4,57.9,40.9,68.0,51.6,25.0,98,80,50,30.35,29.95,18,7,23,0.01
2014-1-7,43.4,36.7,30.1,28.0,18.3,8.0,73,49,30,30.48,30.33,19,10,25,0.00
2014-1-8,60.7,48.3,32.4,52.0,41.8,26.0,86,78,72,30.45,30.32,14,6,17,0.00
2014-1-9,67.6,59.9,52.4,66.0,58.4,49.0,98,94,86,30.35,30.24,9,4,13,0.18
2014-1-10,80.3,71.7,65.6,73.0,68.6,65.0,99,90,74,30.25,30.06,7,1,10,0.00
2014-1-11,84.1,73.1,65.9,72.0,68.0,64.0,98,86,53,30.10,29.91,26,8,33,0.53
2014-1-12,67.7,59.4,45.5,65.0,47.3,37.0,96,67,37,30.25,30.00,15,4,19,0.00
2014-1-13,77.7,61.1,45.2,65.0,54.0,41.0,90,78,58,30.21,29.99,11,2,20,0.00
2014-1-14,70.0,65.7,56.5,67.0,62.1,54.0,95,88,75,30.04,29.92,13,4,18,0.19
2014-1-15,63.9,56.2,48.6,54.0,47.2,41.0,93,74,47,30.07,29.96,10,2,16,0.02
2014-1-16,53.1,47.4,40.2,49.0,31.5,23.0,90,57,31,30.20,29.99,15,5,21,0.02
2014-1-17,64.7,49.3,32.1,47.0,36.4,27.0,87,63,40,30.24,30.12,9,2,14,0.00
2014-1-18,54.8,48.5,39.1,50.0,28.5,15.0,87,50,23,30.31,30.11,18,5,19,0.00
2014-1-19,64.2,50.8,37.0,52.0,42.7,29.0,92,75,55,30.25,30.12,13,3,18,0.00
2014-1-20,69.4,56.1,43.4,49.0,46.1,42.0,95,72,42,30.15,30.05,10,1,14,0.01
2014-1-21,70.6,60.4,52.7,59.0,53.5,37.0,92,78,55,30.05,29.80,20,7,27,0.02
2014-1-22,52.5,45.1,37.4,34.0,27.3,22.0,73,51,33,30.23,29.93,19,6,24,0.00
2014-1-23,60.3,45.9,34.2,34.0,29.1,23.0,78,55,30,30.41,30.21,12,3,15,0.00
2014-1-24,54.7,45.2,40.3,35.0,28.0,15.0,76,53,23,30.51,30.32,16,7,19,0.00
2014-1-25,68.9,53.2,41.1,47.0,41.8,34.0,90,68,39,30.32,30.03,12,3,15,0.01
2014-1-26,67.0,59.8,52.9,60.0,53.5,46.0,94,80,64,30.10,30.00,10,2,10,0.01
2014-1-27,73.0,64.3,59.9,65.0,60.6,57.0,97,88,72,30.05,29.94,9,1,15,0.43
2014-1-28,79.6,66.9,57.2,64.0,60.4,56.0,97,81,59,30.08,29.97,13,2,16,0.00
2014-1-29,61.9,46.2,41.5,59.0,44.5,40.0,95,93,89,30.24,30.00,18,8,20,0.25
2014-1-30,47.2,43.9,39.3,46.0,42.9,38.0,96,96,95,30.23,30.14,13,7,17,0.20
2014-1-31,58.4,52.1,45.1,58.0,51.6,44.0,98,97,96,30.19,30.08,10,5,15,0.25
2014-2-1,75.9,65.3,56.0,72.0,64.4,56.0,99,97,87,30.16,30.07,6,1,10,0.01
2014-2-2,83.6,70.4,60.8,74.0,66.9,60.0,99,89,61,30.19,29.84,6,0,13,0.00
2014-2-3,85.5,72.8,64.4,74.0,66.5,64.0,99,83,50,30.14,28.45,18,2,20,0.01
2014-2-4,85.8,72.6,63.3,72.0,67.7,62.0,98,85,62,30.16,26.63,9,2,15,0.00
2014-2-5,84.2,73.4,68.9,74.0,69.6,66.0,96,88,67,30.08,27.56,14,4,19,0.02
2014-2-6,70.2,56.8,46.9,69.0,53.2,45.0,95,88,74,30.24,28.59,14,6,17,0.17
2014-2-7,55.3,51.8,47.7,54.0,50.7,46.0,97,96,94,30.24,29.58,16,6,16,0.03
2014-2-8,56.1,53.9,50.7,56.0,53.4,50.0,98,97,96,30.18,29.63,13,3,18,0.29
2014-2-9,71.5,57.3,46.6,58.0,50.4,46.0,98,80,46,30.17,29.83,11,3,16,0.04
2014-2-10,73.4,59.6,47.7,55.0,48.3,41.0,96,70,32,30.16,30.07,9,1,12,0.01
2014-2-11,78.6,63.1,52.4,61.0,54.4,49.0,93,76,48,30.11,29.12,13,2,16,0.00
2014-2-12,78.7,61.5,55.7,65.0,57.5,54.0,98,88,53,30.08,29.64,11,4,23,0.01
2014-2-13,63.7,51.7,44.0,62.0,45.2,40.0,96,79,65,30.01,29.69,22,8,28,0.01
2014-2-14,64.9,52.3,40.8,46.0,39.9,32.0,94,67,35,30.11,29.96,12,2,14,0.00
2014-2-15,68.4,57.4,48.3,55.0,42.7,30.0,90,63,25,30.18,29.91,15,6,25,0.01
2014-2-16,69.1,55.0,40.1,48.0,39.6,33.0,95,62,27,30.24,30.14,11,2,15,0.00
2014-2-17,75.8,58.4,43.2,47.0,41.6,31.0,92,60,20,30.28,30.18,9,1,10,0.00
2014-2-18,80.1,63.8,46.9,53.0,47.1,35.0,82,57,36,30.26,30.18,10,1,11,0.00
2014-2-19,82.1,68.1,54.2,63.0,57.4,50.0,94,71,44,30.22,30.09,10,2,15,0.00
2014-2-20,85.0,70.9,55.3,67.0,62.1,54.0,97,77,45,30.18,30.07,12,2,19,0.00
2014-2-21,78.8,71.0,66.9,72.0,67.9,65.0,97,90,77,30.09,30.01,14,3,22,0.00
2014-2-22,78.4,69.3,60.8,71.0,66.4,59.0,98,90,74,30.13,30.04,12,2,15,0.01
2014-2-23,82.8,67.9,59.2,72.0,65.1,58.0,98,91,65,30.11,29.99,12,2,28,0.33
2014-2-24,70.6,65.4,60.0,68.0,63.8,59.0,99,94,87,30.10,29.98,8,1,10,0.00
2014-2-25,78.5,66.7,58.3,65.0,60.2,57.0,98,81,54,30.09,29.96,10,1,13,0.00
2014-2-26,65.4,61.3,55.2,64.0,60.5,54.0,99,97,89,29.98,29.76,8,0,15,0.85
2014-2-27,61.9,54.0,46.7,61.0,49.3,43.0,98,85,58,30.00,29.81,17,4,23,0.01
2014-2-28,70.0,55.6,42.9,49.0,42.8,37.0,84,65,35,30.15,29.98,10,3,14,0.00
2014-3-1,74.0,59.1,48.2,60.0,53.1,45.0,98,82,49,30.27,30.11,11,2,13,0.00
2014-3-2,80.4,65.7,53.0,61.0,56.6,52.0,98,76,46,30.25,30.09,7,1,13,0.01
2014-3-3,82.0,69.1,56.6,63.0,59.3,54.0,92,73,46,30.09,29.98,18,4,23,0.00
2014-3-4,77.2,65.4,54.3,66.0,60.9,52.0,95,86,62,30.10,29.99,13,4,16,0.00
2014-3-5,69.4,58.8,54.3,61.0,56.0,53.0,97,90,74,30.10,30.00,10,4,15,0.00
2014-3-6,68.1,61.3,54.8,66.0,60.2,53.0,98,96,90,30.07,29.73,11,3,14,0.17
2014-3-7,57.7,52.6,46.9,57.0,49.7,42.0,98,90,81,30.10,29.80,18,6,24,0.00
2014-3-8,74.3,58.4,45.7,55.0,49.1,43.0,92,73,46,30.19,30.09,11,3,17,0.00
2014-3-9,76.5,62.9,49.8,55.0,51.4,48.0,96,69,42,30.23,30.10,8,1,19,0.00
2014-3-10,77.3,65.5,54.5,56.0,52.6,49.0,85,65,42,30.16,29.98,8,2,13,0.00
2014-3-11,80.9,67.0,52.0,63.0,56.0,51.0,98,72,38,30.02,29.85,10,1,14,0.00
2014-3-12,78.7,69.9,64.5,68.0,62.9,57.0,94,79,57,29.87,29.73,21,9,29,0.31
2014-3-13,66.6,57.5,46.5,60.0,39.4,31.0,86,54,29,30.24,29.85,20,7,26,0.00
2014-3-14,74.6,58.5,43.3,52.0,44.0,34.0,78,60,42,30.32,30.18,11,2,15,0.00
2014-3-15,79.1,65.0,49.5,57.0,51.6,46.0,93,65,36,30.22,30.05,9,2,13,0.00
2014-3-16,84.6,71.5,58.7,63.0,59.8,55.0,93,69,47,30.08,29.76,21,6,31,0.00
2014-3-17,73.8,70.9,67.9,71.0,66.8,62.0,97,87,75,29.79,29.67,17,6,26,1.88
2014-3-18,74.2,66.3,58.2,70.0,58.8,54.0,98,79,51,30.09,29.62,19,6,25,0.33
2014-3-19,75.5,64.6,57.2,60.0,56.4,54.0,92,76,53,30.16,30.01,11,2,14,0.00
2014-3-20,79.7,66.3,55.5,61.0,57.7,54.0,97,76,49,30.12,29.99,10,1,13,0.00
2014-3-21,81.9,68.6,58.6,62.0,58.3,56.0,93,72,44,30.13,30.04,11,1,13,0.00
2014-3-22,82.6,72.6,64.6,69.0,61.1,53.0,91,69,46,30.09,29.96,13,4,17,0.00
2014-3-23,80.4,71.1,62.6,69.0,63.7,58.0,89,78,66,30.06,29.64,19,3,19,0.00
2014-3-24,72.0,66.2,61.3,66.0,60.1,56.0,91,81,70,30.10,29.83,14,6,16,0.00
2014-3-25,74.8,64.5,57.8,60.0,52.4,33.0,89,68,29,30.06,29.78,20,7,28,0.00
2014-3-26,64.7,52.0,41.1,36.0,27.5,21.0,67,40,24,30.33,30.06,18,6,22,0.00
2014-3-27,69.9,57.9,43.2,57.0,49.4,36.0,83,74,62,30.36,30.25,10,1,12,0.00
2014-3-28,82.6,71.0,60.4,64.0,61.1,56.0,92,72,51,30.24,29.66,16,2,22,0.00
2014-3-29,73.3,70.0,67.1,71.0,67.2,64.0,97,91,75,30.06,29.60,13,5,25,1.80
2014-3-30,73.5,63.7,54.0,63.0,49.7,42.0,92,64,33,30.11,29.84,14,6,21,0.00
2014-3-31,76.6,62.9,51.0,51.0,46.5,37.0,85,60,25,30.19,29.98,6,0,9,0.00
2014-4-1,83.5,66.4,48.6,61.0,49.9,44.0,96,62,27,30.22,29.49,11,1,12,0.00
2014-4-2,86.5,69.9,53.9,61.0,55.8,51.0,95,65,32,30.23,27.28,7,1,11,0.00
2014-4-3,86.3,71.5,55.9,64.0,59.6,53.0,95,69,40,30.18,29.29,11,2,15,0.00
2014-4-4,84.8,73.8,62.8,66.0,63.4,59.0,93,72,44,30.07,28.17,14,2,19,0.00
2014-4-5,84.0,73.4,65.2,68.0,64.5,62.0,96,76,49,30.06,28.04,9,1,12,0.00
2014-4-6,88.0,76.1,66.2,68.0,63.7,60.0,90,68,40,30.02,27.60,11,2,15,0.00
2014-4-7,90.1,77.8,67.2,71.0,67.4,63.0,91,72,49,29.93,26.23,27,5,27,0.00
2014-4-8,77.4,71.4,63.1,73.0,65.8,55.0,91,83,74,29.83,24.55,18,6,24,0.15
2014-4-9,74.2,65.2,57.5,55.0,51.3,47.0,88,63,40,30.06,20.78,10,3,19,0.08
2014-4-10,79.9,65.8,53.3,59.0,53.4,50.0,95,68,38,30.31,24.40,7,1,25,0.00
2014-4-11,83.4,68.7,54.7,63.0,58.2,51.0,93,71,47,30.21,23.40,8,2,13,0.00
2014-4-12,85.0,70.9,60.1,66.0,59.0,56.0,95,69,39,30.23,22.41,10,2,18,0.00
2014-4-13,82.4,71.9,61.5,68.0,61.8,58.0,96,73,50,29.71,22.41,16,2,17,0.00
2014-4-14,89.1,74.4,65.0,71.0,65.9,62.0,93,77,49,28.24,24.18,12,2,17,0.00
2014-4-15,84.8,74.0,64.2,74.0,65.3,-99.9,93,77,61,29.98,29.79,20,-8,32,0.75
2014-4-16,73.1,60.3,45.4,59.0,51.9,41.0,85,75,59,30.19,29.99,17,8,26,0.00
2014-4-17,76.3,67.6,58.4,66.0,60.8,55.0,95,80,63,30.25,30.14,15,5,22,0.00
2014-4-18,80.3,69.1,65.7,72.0,63.2,-99.9,95,86,74,30.18,29.94,10,-19,15,0.07
2014-4-19,74.3,68.4,62.5,68.0,63.5,58.0,97,85,69,30.00,29.88,20,5,24,0.01
2014-4-20,66.8,62.3,59.1,61.0,58.4,57.0,95,87,75,30.12,29.97,13,5,16,0.01
2014-4-21,71.4,64.4,59.5,63.0,59.1,56.0,92,83,72,30.12,30.00,12,3,15,0.00
2014-4-22,80.3,68.0,56.0,64.0,59.6,54.0,95,77,52,30.02,29.86,11,2,14,0.00
2014-4-23,85.1,72.8,63.3,65.0,62.5,60.0,93,72,46,29.97,29.87,10,2,12,0.00
2014-4-24,87.4,75.5,63.4,68.0,65.4,61.0,96,73,49,30.04,29.93,10,1,14,0.00
2014-4-25,85.9,75.4,65.4,67.0,64.9,62.0,95,72,47,30.03,29.94,13,3,20,0.00
2014-4-26,89.8,76.2,67.2,71.0,65.7,61.0,97,73,40,30.05,29.95,9,1,14,0.00
2014-4-27,91.9,78.4,64.6,74.0,66.7,62.0,96,70,40,30.04,29.92,11,2,16,0.00
2014-4-28,92.8,80.1,68.6,71.0,67.9,65.0,92,69,44,29.99,29.88,13,2,18,0.00
2014-4-29,92.2,78.1,69.4,74.0,70.1,67.0,96,78,48,30.03,29.88,12,3,21,1.12
2014-4-30,88.0,74.8,68.9,77.0,71.3,68.0,98,89,66,30.09,29.95,19,2,31,0.06
2014-5-1,89.1,77.4,70.3,76.0,71.9,67.0,97,84,59,30.03,29.94,18,4,25,0.08
2014-5-2,74.7,71.8,70.1,73.0,69.9,68.0,96,94,89,29.98,29.91,11,1,14,0.96
2014-5-3,71.9,65.8,60.9,71.0,65.1,60.0,98,97,96,30.07,29.91,11,2,16,1.14
2014-5-4,85.2,70.9,58.5,61.0,57.3,54.0,97,67,34,30.12,30.02,14,3,19,0.01
2014-5-5,91.1,76.3,63.7,62.0,59.5,54.0,86,59,33,30.10,29.98,7,1,14,0.00
2014-5-6,91.8,77.1,63.2,67.0,60.8,57.0,95,61,32,30.07,29.98,6,1,11,0.00
2014-5-7,92.4,77.3,62.6,71.0,62.8,58.0,96,64,34,30.17,30.05,8,1,14,0.00
2014-5-8,93.2,78.6,66.9,73.0,66.2,61.0,96,69,36,30.23,30.13,11,2,16,0.00
2014-5-9,92.0,79.3,67.9,74.0,66.9,59.0,97,70,36,30.21,30.09,11,2,17,0.00
2014-5-10,89.7,79.1,68.4,73.0,68.3,66.0,96,72,48,30.18,30.06,14,2,20,0.00
2014-5-11,91.5,80.3,74.2,72.0,69.9,68.0,85,72,50,30.16,30.06,9,1,12,0.00
2014-5-12,90.0,77.3,66.9,73.0,67.8,65.0,96,74,46,30.19,30.11,11,2,14,0.00
2014-5-13,88.8,77.7,68.1,73.0,69.4,67.0,97,77,53,30.12,30.05,13,3,18,0.00
2014-5-14,85.8,76.7,71.7,77.0,72.4,68.0,97,87,66,30.10,29.96,9,2,24,0.23
2014-5-15,84.4,78.0,74.4,77.0,73.4,70.0,91,85,72,30.02,29.89,11,3,27,0.47
2014-5-16,80.7,70.1,59.6,70.0,53.9,45.0,88,60,32,30.15,29.98,17,7,25,0.01
2014-5-17,82.1,69.5,58.6,57.0,52.5,49.0,85,57,37,30.20,30.13,13,4,21,0.00
2014-5-18,85.1,71.3,58.6,62.0,57.2,51.0,83,63,43,30.20,30.13,12,2,17,0.00
2014-5-19,86.6,73.8,61.3,68.0,61.8,58.0,95,69,43,30.21,30.14,11,2,15,0.00
2014-5-20,85.1,73.7,64.2,69.0,61.8,55.0,95,69,43,30.24,30.18,13,3,20,0.00
2014-5-21,89.5,74.9,59.3,64.0,59.9,55.0,93,63,37,30.22,30.12,6,0,9,0.00
2014-5-22,92.4,79.0,67.0,72.0,66.3,61.0,87,67,44,30.18,30.03,10,3,14,0.00
2014-5-23,95.1,82.5,72.2,72.0,68.3,66.0,89,65,40,30.11,30.00,13,3,17,0.00
2014-5-27,90.9,80.2,68.1,75.0,69.5,66.0,97,72,44,30.19,30.07,10,1,20,0.00
2014-5-28,92.2,79.1,67.2,73.0,68.2,65.0,95,71,42,30.11,30.00,11,1,17,0.00
2014-5-29,94.7,78.0,70.4,75.0,69.9,65.0,96,79,38,30.06,29.96,15,2,28,0.65
2014-5-30,87.2,75.7,68.3,75.0,70.3,67.0,97,84,61,30.05,30.00,14,1,21,0.01
2014-5-31,87.8,76.1,70.5,77.0,72.2,69.0,97,88,61,30.08,30.00,9,0,15,0.27
2014-6-1,84.5,75.4,71.3,76.0,72.4,70.0,97,91,73,30.12,30.04,9,1,17,0.89
2014-6-2,84.5,76.2,70.6,72.0,69.2,66.0,97,80,61,30.16,30.08,15,3,17,0.01
2014-6-3,82.5,73.9,65.9,71.0,67.2,63.0,93,80,61,30.12,30.02,9,1,12,0.02
2014-6-4,90.1,77.6,65.4,69.0,64.9,61.0,94,68,41,30.05,29.93,6,1,13,0.00
2014-6-5,91.7,79.2,64.8,71.0,66.4,61.0,93,67,40,30.00,29.89,6,1,11,0.00
2014-6-6,93.2,81.8,70.9,72.0,69.5,66.0,92,68,45,30.02,29.91,11,3,14,0.00
2014-6-7,93.5,81.2,73.2,73.0,70.8,68.0,87,72,50,30.03,29.83,12,3,15,0.00
2014-6-8,93.1,78.1,70.8,75.0,71.1,67.0,94,80,54,30.03,29.91,15,2,31,0.13
2014-6-9,93.1,78.3,70.5,77.0,71.6,68.0,94,82,51,30.01,29.89,15,1,29,0.58
2014-6-10,95.9,78.0,70.4,80.0,72.1,67.0,98,85,47,30.05,29.81,12,1,20,2.79
2014-6-11,87.1,72.8,68.5,77.0,70.6,68.0,98,93,67,30.03,29.93,9,1,19,0.31
2014-6-12,86.4,71.3,-7.2,75.0,64.1,-99.9,98,86,66,30.04,29.94,16,2,26,0.82
2014-6-13,86.1,77.9,71.4,77.0,72.5,70.0,95,84,66,30.04,29.95,14,4,21,0.01
2014-6-14,86.5,76.7,72.5,76.0,72.5,71.0,95,87,66,30.10,29.99,10,2,17,0.01
2014-6-15,93.4,78.2,69.2,76.0,71.2,68.0,97,81,48,30.15,30.07,11,1,16,0.06
2014-6-16,88.6,75.7,68.5,77.0,71.3,67.0,97,87,66,30.21,30.10,11,0,18,0.61
2014-6-17,91.2,79.6,69.9,76.0,70.7,67.0,98,76,52,30.19,30.10,8,1,18,0.00
2014-6-18,89.4,78.0,69.2,77.0,71.2,67.0,97,80,58,30.16,30.09,12,1,20,0.02
2014-6-19,90.1,78.7,69.3,77.0,71.9,68.0,97,81,53,30.16,30.07,5,0,22,0.31
2014-6-20,91.8,80.3,72.2,77.0,72.9,70.0,95,79,55,30.10,29.97,12,3,16,0.00
2014-6-21,89.6,80.9,72.9,78.0,73.4,71.0,94,79,60,30.02,29.91,14,2,23,0.02
2014-6-22,87.1,78.5,73.7,78.0,73.1,69.0,91,83,71,30.01,29.92,11,2,26,0.35
2014-6-23,90.5,78.5,72.1,77.0,73.0,70.0,95,84,58,30.10,29.96,10,1,17,0.00
2014-6-24,94.2,83.1,74.0,77.0,74.0,72.0,95,76,50,30.15,30.05,9,1,16,0.06
2014-6-25,93.5,83.3,73.1,78.0,73.9,70.0,96,75,46,30.16,30.02,9,1,12,0.00
2014-6-26,94.9,81.4,72.5,76.0,73.4,70.0,94,78,51,30.13,29.87,13,2,29,0.27
2014-6-27,94.9,80.7,74.5,79.0,74.0,69.0,94,81,54,30.13,29.60,11,2,20,0.10
2014-6-28,96.4,84.2,75.3,77.0,73.3,69.0,89,72,45,30.16,29.36,12,2,15,0.00
2014-6-29,94.7,82.9,77.5,77.0,74.4,72.0,88,77,48,30.16,20.29,19,2,30,0.15
2014-6-30,92.0,81.8,75.5,79.0,75.1,73.0,96,81,55,28.72,20.29,13,5,22,0.04
2014-7-1,92.9,82.0,75.3,79.0,74.6,72.0,98,80,52,28.18,25.00,15,5,24,0.00
2014-7-2,88.1,77.7,74.7,77.0,69.8,-99.9,95,81,64,29.95,25.00,16,-21,20,0.00
2014-7-3,94.2,81.2,75.7,79.0,74.7,70.0,93,81,57,30.10,29.94,22,3,29,0.28
2014-7-4,89.5,79.0,73.6,79.0,74.7,72.0,96,87,63,30.13,30.04,15,1,19,0.04
2014-7-5,91.2,78.6,71.3,78.0,73.5,70.0,97,85,59,30.16,30.06,15,1,19,1.57
2014-7-6,87.8,75.3,71.3,80.0,73.1,70.0,98,93,71,30.12,30.06,14,1,25,0.92
2014-7-7,89.0,78.6,69.8,78.0,74.2,69.0,98,87,65,30.15,30.06,4,0,11,0.01
2014-7-8,92.3,80.4,72.0,78.0,73.9,70.0,97,82,55,30.16,30.07,13,1,20,2.28
2014-7-9,90.2,78.9,72.2,79.0,75.1,71.0,98,88,64,30.15,30.06,10,0,16,0.22
2014-7-10,92.5,79.4,73.0,77.0,73.9,72.0,97,84,56,30.14,30.07,11,1,20,0.02
2014-7-11,92.2,79.2,71.4,78.0,73.4,70.0,98,84,57,30.18,30.07,16,1,18,0.12
2014-7-12,93.3,79.0,72.8,80.0,74.2,70.0,98,87,56,30.18,30.10,14,1,23,0.14
2014-7-13,92.8,79.5,73.6,80.0,74.2,71.0,98,85,53,30.14,30.07,9,1,16,0.01
2014-7-14,92.7,79.6,73.5,79.0,74.0,69.0,97,84,59,30.11,30.02,13,1,23,0.02
2014-7-15,90.0,78.9,72.8,78.0,74.4,71.0,96,87,65,30.05,29.95,16,2,23,0.21
2014-7-16,82.1,76.7,73.9,78.0,74.2,72.0,95,92,84,29.99,29.91,13,3,23,0.65
2014-7-17,91.8,81.4,74.7,77.0,74.6,73.0,94,81,57,30.04,29.92,12,2,17,0.00
2014-7-18,94.7,82.3,72.5,77.0,72.8,66.0,97,76,40,30.11,30.02,10,1,17,0.00
2014-7-19,94.1,83.7,74.6,80.0,74.5,72.0,98,76,50,30.10,30.03,9,1,13,0.00
2014-7-20,93.2,81.5,74.9,78.0,75.4,73.0,96,82,60,30.09,30.01,14,1,22,0.87
2014-7-21,94.4,80.8,74.0,80.0,74.8,71.0,98,84,48,30.10,29.99,13,1,21,1.04
2014-7-22,94.6,79.6,72.2,80.0,74.4,70.0,98,86,54,30.09,30.01,13,1,25,0.89
2014-7-23,94.2,82.2,73.0,79.0,75.1,72.0,98,81,53,30.10,30.00,8,0,13,0.01
2014-7-24,93.1,84.8,77.9,78.0,75.8,74.0,92,76,54,30.07,29.97,9,1,15,0.00
2014-7-25,93.6,81.9,75.8,78.0,75.3,72.0,94,81,57,30.09,30.03,9,1,14,0.00
2014-7-26,92.1,83.3,75.2,82.0,76.2,73.0,96,80,62,30.12,30.02,9,2,16,0.00
2014-7-27,92.2,84.2,77.3,79.0,76.8,75.0,95,79,63,30.11,30.03,12,3,19,0.00
2014-7-28,92.1,84.4,78.1,80.0,76.8,75.0,92,78,61,30.06,29.95,15,5,21,0.03
2014-7-29,91.2,81.6,74.6,80.0,76.5,70.0,94,84,67,29.98,29.90,25,3,26,0.72
2014-7-30,93.1,83.2,73.3,77.0,70.5,67.0,94,68,42,30.00,29.93,10,1,12,0.00
2014-7-31,93.3,81.9,71.3,79.0,72.9,67.0,89,75,53,30.00,29.93,10,1,12,0.00
2014-8-1,94.0,83.2,73.2,77.0,73.3,71.0,92,74,50,30.01,29.93,7,0,13,0.00
2014-8-2,96.0,83.8,75.4,79.0,75.4,73.0,96,77,48,30.01,29.92,8,1,13,0.00
2014-8-3,93.5,82.3,75.7,80.0,76.8,71.0,96,84,60,29.98,29.89,13,1,28,0.99
2014-8-4,90.4,79.7,74.7,80.0,76.1,72.0,97,89,67,29.98,29.89,13,2,21,0.17
2014-8-5,90.8,81.2,75.5,80.0,76.0,73.0,97,85,62,30.07,29.95,9,1,20,0.01
2014-8-6,95.4,82.7,76.0,80.0,74.9,71.0,97,79,49,30.08,29.99,13,1,19,0.00
2014-8-7,94.7,81.7,74.8,79.0,74.8,70.0,96,80,53,30.04,29.94,9,1,20,0.00
2014-8-8,93.3,81.4,72.7,79.0,74.4,71.0,97,80,58,30.08,29.97,13,1,19,0.00
2014-8-9,94.7,83.0,73.9,77.0,74.3,72.0,95,77,51,30.09,29.99,12,2,17,0.00
2014-8-10,92.0,80.5,76.6,79.0,75.2,73.0,93,84,61,30.08,30.00,12,2,26,0.12
2014-8-11,90.0,79.7,75.5,78.0,74.7,73.0,93,85,65,30.06,29.98,15,4,20,0.09
2014-8-12,86.9,79.7,75.4,79.0,74.3,70.0,94,84,60,30.03,29.96,17,3,24,0.09
2014-8-13,94.1,84.0,76.0,78.0,75.3,73.0,95,77,52,30.03,29.96,11,3,16,0.00
2014-8-14,89.5,80.5,72.5,79.0,75.7,71.0,95,86,68,30.05,29.98,10,2,23,0.82
2014-8-15,83.2,76.8,71.9,79.0,73.8,71.0,97,90,79,30.07,29.99,12,2,16,0.53
2014-8-16,87.6,77.8,72.7,79.0,74.8,70.0,97,90,71,30.10,30.01,17,2,28,0.23
2014-8-17,92.8,83.9,75.2,80.0,76.1,74.0,98,79,57,30.13,30.03,10,2,12,0.00
2014-8-18,94.0,84.1,75.2,79.0,75.9,73.0,96,77,53,30.08,29.75,13,2,15,0.00
2014-8-19,94.2,84.7,76.5,79.0,74.7,71.0,96,74,51,30.06,29.81,11,2,15,0.00
2014-8-20,95.2,85.3,75.4,80.0,75.5,73.0,96,74,51,30.11,29.46,10,1,13,0.00
2014-8-21,97.8,85.2,77.8,80.0,74.7,70.0,96,73,43,30.15,30.03,11,1,13,0.00
2014-8-22,96.5,81.7,73.9,78.0,74.5,71.0,96,80,49,30.11,30.00,10,0,23,0.40
2014-8-23,96.8,83.0,74.3,80.0,75.1,72.0,96,79,54,30.02,29.87,15,1,25,0.00
2014-8-24,98.1,83.9,75.9,80.0,76.1,73.0,93,78,50,29.91,29.79,13,2,17,0.00
2014-8-25,89.5,81.6,75.3,77.0,74.5,71.0,93,80,58,29.91,29.82,18,7,24,0.00
2014-8-26,90.6,81.0,73.0,77.0,73.0,70.0,97,78,53,29.96,27.65,17,4,19,0.00
2014-8-27,92.9,81.7,73.1,74.0,71.8,68.0,93,74,49,30.01,27.04,11,3,17,0.00
2014-8-28,95.2,81.3,69.9,77.0,71.7,67.0,96,75,48,30.04,29.39,7,0,15,0.00
2014-8-29,95.3,79.6,73.3,79.0,74.4,70.0,97,85,54,30.14,30.00,17,2,31,0.12
2014-8-30,95.9,82.5,72.2,80.0,74.9,71.0,98,80,51,30.16,25.91,6,1,12,0.01
2014-8-31,95.6,82.9,73.8,78.0,74.9,72.0,96,78,52,30.15,28.13,8,1,14,0.00
2014-9-1,96.1,83.0,73.6,79.0,74.4,72.0,97,77,50,30.14,29.77,11,1,11,0.00
2014-9-2,94.7,83.3,73.1,78.0,73.5,71.0,97,74,50,30.12,29.99,9,1,15,0.00
2014-9-3,93.1,81.1,72.2,77.0,72.8,70.0,95,77,51,30.08,29.98,7,1,14,0.11
2014-9-4,90.6,78.9,72.2,77.0,73.1,70.0,97,83,61,30.13,30.03,8,1,16,0.00
2014-9-5,92.3,77.8,73.2,77.0,73.4,71.0,97,87,55,30.14,29.93,16,1,26,0.00
2014-9-6,90.1,78.4,73.0,77.0,73.0,70.0,98,85,57,30.09,29.97,11,1,25,0.02
2014-9-7,91.1,77.1,73.4,79.0,73.7,71.0,97,90,58,30.05,29.98,13,1,23,0.02
2014-9-8,93.1,79.0,72.0,77.0,73.3,71.0,98,84,52,30.09,30.00,9,1,18,0.05
2014-9-9,92.5,78.4,73.0,79.0,73.5,71.0,98,86,52,30.09,29.99,12,1,19,0.03
2014-9-10,92.4,79.5,70.7,78.0,73.6,70.0,98,84,56,30.07,29.97,9,1,16,0.03
2014-9-11,92.5,81.2,73.4,80.0,73.9,71.0,98,80,56,30.06,29.79,7,1,18,0.00
2014-9-12,89.6,80.4,73.7,79.0,75.3,71.0,98,85,68,30.03,29.77,16,2,23,0.07
2014-9-13,92.6,81.5,72.8,78.0,74.0,72.0,97,79,55,30.06,23.22,8,1,14,0.01
2014-9-14,92.9,81.5,72.7,76.0,73.0,71.0,97,77,52,30.16,22.39,12,2,17,0.02
2014-9-15,92.8,79.1,72.2,76.0,72.7,71.0,97,82,52,30.15,21.76,12,1,17,0.00
2014-9-16,87.4,79.1,75.4,74.0,72.6,71.0,92,81,62,30.13,27.94,12,1,17,0.00
2014-9-17,86.7,79.2,74.0,75.0,73.3,72.0,96,83,66,29.98,29.00,8,1,12,0.00
2014-9-18,93.1,80.3,72.4,76.0,73.0,71.0,97,81,51,29.97,27.79,10,0,13,0.13
2014-9-19,83.1,74.2,69.8,78.0,71.7,66.0,97,92,74,30.00,29.64,4,0,24,0.54
2014-9-20,84.3,74.1,69.2,76.0,70.9,68.0,98,90,68,30.01,28.74,14,2,23,0.09
2014-9-21,88.9,77.7,68.7,74.0,71.3,68.0,97,82,57,30.05,28.58,9,0,14,0.01
2014-9-22,87.3,76.2,71.0,77.0,72.3,70.0,98,88,66,30.04,27.25,10,1,20,0.03
2014-9-23,86.2,75.7,71.1,76.0,72.1,69.0,98,89,68,30.02,26.80,14,2,21,0.01
2014-9-24,80.0,73.4,68.9,73.0,70.2,67.0,96,90,78,30.14,26.31,16,5,18,0.00
2014-9-25,85.7,74.5,68.1,77.0,70.9,67.0,97,89,72,30.12,26.82,13,4,15,0.00
2014-9-26,89.4,75.8,71.0,78.0,73.0,69.0,98,91,66,30.05,20.48,14,2,19,1.40
2014-9-27,85.4,75.8,73.1,81.0,74.6,73.0,99,96,80,30.03,25.02,8,1,12,1.00
2014-9-28,88.1,78.9,74.2,81.0,76.5,74.0,100,92,73,30.00,24.17,7,1,18,0.16
2014-9-29,84.8,75.4,73.3,80.0,74.2,73.0,99,96,80,28.97,24.20,6,0,12,1.84
2014-9-30,85.8,76.3,72.3,78.0,74.4,72.0,99,94,73,23.58,0.00,10,1,22,0.68
2014-10-1,84.5,76.6,72.5,79.0,74.8,72.0,99,94,81,30.00,25.91,9,1,9,0.41
2014-10-2,90.0,78.6,73.0,79.0,75.1,72.0,99,89,68,30.06,22.62,10,1,17,0.25
2014-10-3,90.8,79.9,72.2,78.0,74.6,71.0,99,85,61,30.05,25.62,11,2,14,0.03
2014-10-4,83.8,76.7,67.5,75.0,68.9,57.0,97,79,50,29.91,27.23,14,3,20,0.01
2014-10-5,77.7,65.9,54.4,55.0,50.8,46.0,80,60,37,30.08,27.39,15,3,17,0.00
2014-10-6,82.1,68.4,55.5,66.0,59.1,51.0,91,74,41,30.12,21.25,8,1,13,0.00
2014-10-7,86.9,75.4,66.4,73.0,68.2,64.0,96,79,60,28.60,20.66,8,1,13,0.00
2014-10-8,90.8,78.6,68.8,75.0,70.1,67.0,98,77,49,28.28,23.01,5,0,11,0.00
2014-10-9,88.6,75.8,68.4,75.0,69.1,67.0,98,80,57,30.10,20.16,7,1,17,0.00
2014-10-10,89.9,78.5,70.0,77.0,70.8,68.0,99,79,55,30.11,30.01,10,1,11,0.00
2014-10-11,91.0,77.1,67.0,76.0,70.6,65.0,99,82,53,30.08,29.99,8,0,12,0.00
2014-10-12,90.7,77.9,68.1,75.0,70.7,67.0,99,80,55,30.10,30.02,5,1,14,0.01
2014-10-13,89.1,78.0,69.0,75.0,70.6,68.0,99,80,56,30.13,30.01,10,2,16,0.00
2014-10-14,89.1,77.5,71.8,77.0,72.8,70.0,97,86,65,30.05,29.92,15,2,23,0.11
2014-10-15,81.3,74.0,64.1,74.0,67.7,60.0,98,82,51,30.00,29.92,13,2,16,0.17
2014-10-16,80.3,69.1,60.6,63.0,59.2,55.0,98,73,50,29.99,29.89,13,2,21,0.00
2014-10-17,81.6,69.0,57.8,61.0,57.2,54.0,89,68,45,30.04,29.94,8,1,12,0.00
2014-10-18,83.0,69.8,56.6,64.0,59.4,53.0,97,72,45,30.02,29.91,9,1,14,0.00
2014-10-19,83.5,71.2,63.1,68.0,63.8,60.0,96,79,57,30.07,29.97,11,2,16,0.00
2014-10-20,86.6,74.0,63.5,71.0,65.4,61.0,96,76,50,30.09,29.95,5,0,13,0.00
2014-10-21,84.5,73.9,67.5,72.0,68.2,66.0,97,84,58,29.99,29.91,5,0,10,0.00
2014-10-22,83.2,71.7,62.0,68.0,62.2,57.0,98,75,45,30.03,29.94,11,1,15,0.00
2014-10-23,80.5,67.7,57.9,59.0,56.2,53.0,87,68,44,30.04,29.94,12,2,18,0.00
2014-10-24,79.1,67.1,57.8,61.0,56.3,52.0,84,70,49,30.03,29.92,12,2,17,0.00
2014-10-25,79.2,67.4,58.0,57.0,54.2,50.0,86,65,42,30.02,29.95,6,1,13,0.00
2014-10-26,83.5,67.2,54.1,60.0,55.3,52.0,97,70,37,30.05,29.96,8,0,10,0.00
2014-10-27,85.9,70.4,55.8,68.0,60.3,54.0,98,73,40,30.13,30.03,9,0,13,0.00
2014-10-28,86.3,72.1,58.9,70.0,63.3,57.0,98,76,47,30.20,30.10,10,1,13,0.00
2014-10-29,86.8,73.6,62.9,71.0,63.7,61.0,98,74,42,30.13,30.00,7,0,11,0.00
2014-10-30,81.5,72.6,63.8,69.0,64.0,59.0,97,76,48,30.02,29.88,6,0,15,0.00
2014-10-31,76.4,68.8,62.0,64.0,55.7,49.0,88,65,41,29.91,29.80,11,2,17,0.00
2014-11-1,62.0,56.0,48.6,50.0,37.3,28.0,72,51,32,30.18,29.88,20,6,29,0.00
2014-11-2,66.8,51.6,40.6,41.0,37.4,34.0,81,60,35,30.34,30.18,11,2,16,0.00
2014-11-3,73.0,59.1,45.5,54.0,47.4,37.0,85,67,48,30.40,30.31,17,2,18,0.00
2014-11-4,79.3,65.9,54.3,60.0,56.3,51.0,92,73,46,30.35,30.22,9,1,17,0.00
2014-11-5,81.8,70.2,61.4,66.0,60.9,58.0,95,75,48,30.27,30.15,11,1,15,0.00
2014-11-6,83.3,71.0,60.9,69.0,62.2,59.0,98,76,47,30.18,29.99,10,2,15,0.00
2014-11-7,74.0,65.1,51.5,66.0,54.6,47.0,96,71,39,30.03,29.94,12,2,16,0.00
2014-11-8,76.8,62.1,51.2,62.0,55.6,48.0,93,80,59,30.01,29.87,12,1,13,0.06
2014-11-9,67.7,61.2,56.7,61.0,57.9,55.0,97,89,74,29.96,29.86,10,1,13,0.30
2014-11-10,67.4,62.6,59.4,64.0,59.6,55.0,95,90,81,29.99,29.92,15,3,20,0.16
2014-11-11,79.6,66.5,56.9,66.0,58.2,51.0,86,75,61,29.99,29.90,14,3,19,0.00
2014-11-12,78.0,64.7,54.3,59.0,52.9,48.0,89,67,42,30.09,29.97,8,0,12,0.00
2014-11-13,79.6,67.5,57.7,62.0,58.0,54.0,92,74,42,30.10,29.98,8,0,11,0.00
2014-11-14,69.3,60.6,49.7,62.0,54.1,42.0,96,81,47,30.19,30.01,6,1,18,0.00
2014-11-15,74.7,58.8,45.8,61.0,52.2,41.0,93,80,58,30.27,30.15,13,2,17,0.00
2014-11-16,82.2,67.5,53.1,66.0,60.7,51.0,97,81,56,30.24,30.05,13,1,17,0.00
2014-11-17,81.5,70.7,67.2,73.0,68.4,66.0,98,92,75,30.05,29.89,17,4,27,0.95
2014-11-18,67.7,48.3,41.0,67.0,40.9,30.0,97,76,57,30.34,29.97,14,3,21,0.02
2014-11-19,59.1,45.0,36.1,46.0,35.9,26.0,88,71,61,30.42,30.29,15,3,19,0.00
2014-11-20,63.2,50.5,38.9,46.0,39.4,33.0,88,68,42,30.33,30.21,12,1,14,0.00
2014-11-21,72.6,60.3,49.9,56.0,46.8,33.0,82,62,48,30.33,30.24,18,4,23,0.00
2014-11-22,70.3,66.2,60.3,67.0,62.9,55.0,97,89,80,30.30,30.11,9,2,17,0.11
2014-11-23,84.3,75.0,68.6,74.0,71.1,67.0,98,88,69,30.11,29.87,21,4,26,0.13
2014-11-24,87.1,77.2,71.9,75.0,72.3,70.0,98,86,65,30.03,29.91,13,4,20,0.00
2014-11-25,73.0,70.5,66.3,72.0,69.6,66.0,100,97,91,30.03,29.87,12,1,20,3.47
2014-11-26,71.5,57.7,49.4,71.0,54.4,48.0,99,89,63,30.23,29.83,22,4,28,0.32
2014-11-27,66.9,54.7,44.4,53.0,42.9,36.0,93,67,38,30.31,30.19,16,3,20,0.01
2014-11-28,60.5,48.3,37.7,42.0,37.8,31.0,85,68,48,30.36,30.27,13,2,15,0.00
2014-11-29,71.8,56.3,42.7,56.0,48.0,39.0,92,76,47,30.35,30.26,7,0,11,0.00
2014-11-30,76.6,62.7,51.5,61.0,55.3,49.0,97,79,53,30.36,30.28,6,1,13,0.00
2014-12-1,79.3,67.3,57.0,65.0,60.8,56.0,98,81,60,30.37,30.24,10,1,14,0.00
2014-12-2,79.6,68.8,61.4,68.0,63.7,60.0,98,84,66,30.27,30.16,8,1,18,0.00
2014-12-3,81.0,68.7,60.7,68.0,62.4,60.0,98,82,53,30.23,30.14,9,2,15,0.01
2014-12-4,81.1,69.6,62.7,68.0,64.0,62.0,98,84,53,30.26,30.16,11,4,17,0.00
2014-12-5,77.7,69.8,64.3,70.0,66.1,64.0,98,88,71,30.29,30.21,11,2,13,0.00
2014-12-6,81.3,71.0,64.3,70.0,66.0,63.0,98,85,62,30.25,30.10,5,0,9,0.00
2014-12-7,69.1,63.3,57.5,65.0,60.1,54.0,96,89,77,30.14,30.08,15,3,18,0.00
2014-12-8,61.9,58.3,52.2,61.0,56.8,50.0,97,94,92,30.14,30.07,16,5,21,0.03
2014-12-9,63.9,53.9,48.6,50.0,45.6,41.0,91,75,51,30.11,30.02,15,3,19,0.00
2014-12-10,61.9,51.7,42.6,44.0,40.6,36.0,82,68,44,30.17,30.07,8,1,13,0.00
2014-12-11,60.7,50.3,41.5,46.0,42.0,38.0,91,74,53,30.22,30.12,10,2,15,0.00
2014-12-12,61.8,50.3,43.2,43.0,39.2,35.0,89,68,37,30.31,30.20,4,0,10,0.00
2014-12-13,69.0,52.1,40.8,45.0,40.1,35.0,95,69,29,30.24,30.11,19,1,19,0.00
2014-12-14,70.0,56.0,44.3,45.0,39.5,35.0,78,57,30,30.14,30.05,7,1,10,0.00
2014-12-15,70.1,54.7,43.2,52.0,44.3,38.0,96,72,32,30.17,30.08,5,0,9,0.00
2014-12-16,73.0,57.6,43.9,57.0,49.5,40.0,97,77,44,30.22,30.13,8,2,12,0.00
2014-12-17,70.9,61.2,51.7,58.0,50.3,45.0,95,70,42,30.23,30.11,8,1,10,0.00
2014-12-18,69.0,56.1,46.9,50.0,46.8,43.0,88,73,47,30.21,30.10,6,1,9,0.00
2014-12-19,72.1,58.4,48.6,51.0,46.0,37.0,93,67,29,30.18,30.07,3,0,9,0.00
2014-12-20,76.7,63.7,52.7,61.0,56.7,49.0,96,79,55,30.15,30.05,8,1,10,0.00
2014-12-21,78.9,67.2,60.3,67.0,63.4,60.0,98,89,64,30.14,30.01,7,1,12,0.46
2014-12-22,78.1,70.0,64.4,71.0,67.5,64.0,98,92,78,30.07,29.89,14,2,17,0.32
2014-12-23,79.9,72.6,68.7,72.0,69.2,67.0,98,89,74,30.00,29.85,16,3,18,0.00
2014-12-24,83.6,74.3,63.5,74.0,70.0,60.0,94,86,71,29.99,29.81,17,6,23,0.15
2014-12-25,63.9,57.3,48.3,62.0,51.6,46.0,93,82,71,30.26,29.96,9,1,18,0.00
2014-12-26,68.0,57.5,46.7,62.0,54.4,45.0,96,89,78,30.28,30.20,5,0,10,0.01
2014-12-27,81.6,69.2,60.3,70.0,64.1,58.0,96,85,59,30.29,30.16,5,1,9,0.00
2014-12-28,80.2,70.7,64.4,72.0,67.2,63.0,98,89,67,30.20,29.49,8,1,12,0.00
2014-12-29,81.5,70.2,61.4,70.0,65.7,61.0,98,87,64,30.16,29.55,14,1,17,0.01
2014-12-30,70.2,66.4,60.2,69.0,64.9,58.0,98,94,88,30.28,30.09,11,2,16,0.01
2014-12-31,62.1,59.3,56.8,60.0,56.9,54.0,95,91,89,30.34,30.21,15,7,21,0.01
2015-1-1,71.0,62.3,55.8,65.0,59.0,54.0,94,89,81,30.31,30.18,12,4,16,0.00
2015-1-2,80.4,67.3,59.0,71.0,64.2,58.0,98,90,72,30.30,30.20,6,0,9,0.00